RYR734 EGPK-EGNX

Flight info

Callsign RYR734
Flight time 0h 38m
Altitude 35000
Route LUCCO Z248 OSMEG T256 DCS DCT AKOMU DCT VAMEB UL612 CROFT
Aircraft B738/M-SDE2E3FGHIRWXY/LB1

Departure

Time 2026-05-04 17:06
Airport Glasgow Prestwick Airport (EGPK)

Arrival

Time 2026-05-04 17:44
Airport East Midlands Airport (EGNX)
Time Latitude Longitude Altitude Speed Heading
2026-05-04 16:48 55.50544 -4.59580 74 ft 0 kts 324°
2026-05-04 17:00 55.50552 -4.59590 74 ft 2 kts 324°
2026-05-04 17:01 55.50595 -4.59602 74 ft 4 kts 43°
2026-05-04 17:01 55.50631 -4.59471 74 ft 8 kts 64°
2026-05-04 17:02 55.50670 -4.59263 74 ft 11 kts 117°
2026-05-04 17:02 55.50582 -4.59006 74 ft 14 kts 120°
2026-05-04 17:03 55.50536 -4.58837 74 ft 16 kts 114°
2026-05-04 17:03 55.50484 -4.58651 74 ft 17 kts 121°
2026-05-04 17:03 55.50370 -4.58326 74 ft 11 kts 122°
2026-05-04 17:04 55.50291 -4.58102 74 ft 11 kts 122°
2026-05-04 17:04 55.50309 -4.57935 74 ft 10 kts 24°
2026-05-04 17:05 55.50415 -4.57943 74 ft 8 kts 303°
2026-05-04 17:05 55.51112 -4.59953 271 ft 147 kts 301°
2026-05-04 17:06 55.52215 -4.63133 1712 ft 157 kts 302°
2026-05-04 17:06 55.52812 -4.64836 2426 ft 167 kts 301°
2026-05-04 17:07 55.53608 -4.68801 3813 ft 188 kts 264°
2026-05-04 17:07 55.53277 -4.70245 4300 ft 196 kts 242°
2026-05-04 17:07 55.51780 -4.72211 5262 ft 213 kts 206°
2026-05-04 17:07 55.50326 -4.73010 5966 ft 223 kts 198°
2026-05-04 17:08 55.48799 -4.73608 6776 ft 231 kts 194°
2026-05-04 17:08 55.45393 -4.73675 8264 ft 267 kts 162°
2026-05-04 17:08 55.43742 -4.71928 9064 ft 282 kts 143°
2026-05-04 17:09 55.42276 -4.69555 9830 ft 296 kts 136°
2026-05-04 17:09 55.40826 -4.66845 10601 ft 311 kts 133°
2026-05-04 17:09 55.39331 -4.63903 11374 ft 333 kts 132°
2026-05-04 17:10 55.36112 -4.57435 12891 ft 370 kts 132°
2026-05-04 17:10 55.30746 -4.46607 15166 ft 411 kts 132°
2026-05-04 17:11 55.28817 -4.42772 15926 ft 421 kts 132°
2026-05-04 17:11 55.26845 -4.38896 16683 ft 428 kts 133°
2026-05-04 17:11 55.22807 -4.31030 18189 ft 439 kts 133°
2026-05-04 17:12 55.20772 -4.27083 18935 ft 442 kts 133°
2026-05-04 17:12 55.16631 -4.19089 20437 ft 445 kts 133°
2026-05-04 17:13 55.10409 -4.06977 22690 ft 452 kts 132°
2026-05-04 17:14 55.04068 -3.94572 24662 ft 463 kts 132°
2026-05-04 17:14 55.01912 -3.90377 24896 ft 464 kts 132°
2026-05-04 17:14 54.97602 -3.82037 25072 ft 461 kts 132°
2026-05-04 17:15 54.95472 -3.77939 25073 ft 460 kts 132°
2026-05-04 17:15 54.91180 -3.69724 25069 ft 457 kts 132°
2026-05-04 17:16 54.86891 -3.61567 25067 ft 456 kts 132°
2026-05-04 17:16 54.80484 -3.49474 25053 ft 454 kts 132°
2026-05-04 17:17 54.78321 -3.45464 25052 ft 454 kts 133°
2026-05-04 17:17 54.71053 -3.35139 25057 ft 454 kts 149°
2026-05-04 17:18 54.68278 -3.32531 25054 ft 454 kts 152°
2026-05-04 17:18 54.62557 -3.27804 25049 ft 454 kts 155°
2026-05-04 17:19 54.56807 -3.23405 25048 ft 453 kts 156°
2026-05-04 17:19 54.51010 -3.19077 25050 ft 453 kts 156°
2026-05-04 17:20 54.45258 -3.14685 25053 ft 453 kts 155°
2026-05-04 17:20 54.39541 -3.10181 25056 ft 453 kts 154°
2026-05-04 17:20 54.36678 -3.07934 25058 ft 453 kts 155°
2026-05-04 17:21 54.30914 -3.03505 25069 ft 452 kts 155°
2026-05-04 17:21 54.25173 -2.99154 25090 ft 452 kts 155°
2026-05-04 17:22 54.22286 -2.96979 25093 ft 452 kts 155°
2026-05-04 17:22 54.19402 -2.94812 25095 ft 452 kts 155°
2026-05-04 17:23 54.10768 -2.88360 25100 ft 452 kts 156°
2026-05-04 17:23 54.07909 -2.86271 25108 ft 451 kts 156°
2026-05-04 17:23 54.02130 -2.82076 25109 ft 452 kts 156°
2026-05-04 17:24 53.99227 -2.79981 24952 ft 453 kts 156°
2026-05-04 17:24 53.90536 -2.73728 24223 ft 450 kts 156°
2026-05-04 17:25 53.87667 -2.71651 23974 ft 450 kts 156°
2026-05-04 17:25 53.81873 -2.67482 23470 ft 449 kts 156°
2026-05-04 17:26 53.76135 -2.63383 22972 ft 450 kts 156°
2026-05-04 17:26 53.67458 -2.57215 22223 ft 451 kts 155°
2026-05-04 17:27 53.61901 -2.52366 21734 ft 451 kts 150°
2026-05-04 17:27 53.56464 -2.47130 21236 ft 452 kts 149°
2026-05-04 17:28 53.51034 -2.41742 20735 ft 453 kts 149°
2026-05-04 17:29 53.42914 -2.33592 20129 ft 452 kts 149°
2026-05-04 17:29 53.35699 -2.26568 19930 ft 350 kts 150°
2026-05-04 17:30 53.29636 -2.20870 18243 ft 323 kts 151°
2026-05-04 17:31 53.25770 -2.17270 17038 ft 312 kts 152°
2026-05-04 17:31 53.20157 -2.12124 15232 ft 301 kts 152°
2026-05-04 17:32 53.16534 -2.08808 14036 ft 296 kts 152°
2026-05-04 17:33 53.11193 -2.03884 12236 ft 290 kts 152°
2026-05-04 17:33 53.09441 -2.02234 11634 ft 288 kts 151°
2026-05-04 17:34 53.05698 -1.95518 10979 ft 266 kts 104°
2026-05-04 17:34 53.05425 -1.92398 10412 ft 276 kts 95°
2026-05-04 17:35 53.05283 -1.82817 8621 ft 278 kts 90°
2026-05-04 17:35 53.05315 -1.76529 8048 ft 257 kts 89°
2026-05-04 17:35 53.05333 -1.73630 8041 ft 251 kts 89°
2026-05-04 17:36 53.05339 -1.70705 8042 ft 250 kts 90°
2026-05-04 17:36 53.05242 -1.67850 8021 ft 251 kts 101°
2026-05-04 17:36 53.04516 -1.65162 7598 ft 260 kts 127°
2026-05-04 17:36 53.03138 -1.63244 7099 ft 258 kts 153°
2026-05-04 17:37 53.01447 -1.62422 6620 ft 254 kts 173°
2026-05-04 17:37 52.99680 -1.62347 6135 ft 253 kts 183°
2026-05-04 17:37 52.97936 -1.62547 5643 ft 252 kts 186°
2026-05-04 17:37 52.96204 -1.62834 5318 ft 244 kts 187°
2026-05-04 17:38 52.94588 -1.63126 5102 ft 228 kts 187°
2026-05-04 17:38 52.93056 -1.63409 4840 ft 216 kts 187°
2026-05-04 17:38 52.91587 -1.63681 4580 ft 207 kts 187°
2026-05-04 17:38 52.90179 -1.63947 4318 ft 199 kts 187°
2026-05-04 17:39 52.87484 -1.64465 3807 ft 192 kts 187°
2026-05-04 17:39 52.86174 -1.64719 3577 ft 190 kts 187°
2026-05-04 17:39 52.84856 -1.64808 3350 ft 190 kts 172°
2026-05-04 17:40 52.83710 -1.63814 3143 ft 189 kts 136°
2026-05-04 17:40 52.83025 -1.61985 2999 ft 185 kts 111°
2026-05-04 17:40 52.82718 -1.59947 2882 ft 183 kts 98°
2026-05-04 17:40 52.82621 -1.57852 2724 ft 179 kts 91°
2026-05-04 17:41 52.82631 -1.55824 2556 ft 178 kts 88°
2026-05-04 17:41 52.82680 -1.53792 2382 ft 177 kts 86°
2026-05-04 17:41 52.82732 -1.51756 2205 ft 176 kts 87°
2026-05-04 17:41 52.82775 -1.49749 2046 ft 163 kts 87°
2026-05-04 17:42 52.82808 -1.48002 1860 ft 149 kts 87°
2026-05-04 17:42 52.82842 -1.46307 1674 ft 145 kts 87°
2026-05-04 17:42 52.82875 -1.44642 1488 ft 144 kts 88°
2026-05-04 17:42 52.82907 -1.42997 1291 ft 144 kts 88°
2026-05-04 17:43 52.82939 -1.41336 1100 ft 143 kts 88°
2026-05-04 17:43 52.82970 -1.39689 921 ft 143 kts 88°
2026-05-04 17:43 52.83001 -1.38064 736 ft 142 kts 88°
2026-05-04 17:43 52.83031 -1.36429 561 ft 141 kts 88°
2026-05-04 17:44 52.83061 -1.34797 361 ft 140 kts 88°
2026-05-04 17:44 52.83088 -1.33351 315 ft 100 kts 88°
2026-05-04 17:44 52.83103 -1.32511 315 ft 58 kts 88°
2026-05-04 17:44 52.83114 -1.31938 315 ft 42 kts 88°
2026-05-04 17:45 52.83121 -1.31521 315 ft 31 kts 88°
2026-05-04 17:45 52.83083 -1.31316 315 ft 9 kts 188°
2026-05-04 17:45 52.83047 -1.31319 315 ft 3 kts 180°
2026-05-04 17:45 52.83030 -1.31319 315 ft 3 kts 180°
2026-05-04 17:46 52.82997 -1.31319 315 ft 7 kts 180°
2026-05-04 17:46 52.82955 -1.31377 315 ft 10 kts 262°
2026-05-04 17:46 52.82951 -1.31525 315 ft 15 kts 268°
2026-05-04 17:46 52.82948 -1.31730 315 ft 20 kts 268°
2026-05-04 17:47 52.82943 -1.31986 315 ft 25 kts 268°
2026-05-04 17:47 52.82938 -1.32292 315 ft 29 kts 268°
2026-05-04 17:47 52.82933 -1.32526 315 ft 12 kts 268°
2026-05-04 17:47 52.82930 -1.32690 315 ft 17 kts 268°
2026-05-04 17:48 52.82925 -1.32910 315 ft 21 kts 268°
2026-05-04 17:48 52.82922 -1.33105 315 ft 10 kts 268°
2026-05-04 17:48 52.82878 -1.33166 315 ft 10 kts 179°
2026-05-04 17:48 52.82799 -1.33165 315 ft 13 kts 189°
2026-05-04 17:49 52.82773 -1.33216 315 ft 6 kts 262°
2026-05-04 17:49 52.82772 -1.33285 315 ft 5 kts 285°
2026-05-04 17:49 52.82796 -1.33304 315 ft 5 kts 358°
2026-05-04 17:49 52.82815 -1.33305 315 ft 0 kts 358°